Location: ??????????
(54.8537°N, 38.8755°E)
Time: 22:27:10
(UTC+00:00)

Transit 2A Rocket - Pass Details

Date: 18 September 2024
Orbit: 582 x 908 km, 66.7° (Epoch: 09 October)

Event Time Altitude Azimuth Distance (km) Brightness Sun altitude
Exits shadow 00:48:16 - 299° (WNW) 3,010 7.8 -19.0°
Reaches altitude 10° 00:49:36 10° 305° (NW) 2,601 7.5 -18.9°
Maximum altitude 00:54:40 26° 2° (N) 1,678 7.1 -18.3°
Drops below altitude 10° 00:59:35 10° 58° (ENE) 2,519 9.0 -17.7°
Sets 01:02:25 0° 71° (ENE) 3,412 10.0 -17.3°
